User: anonymous   Login
Location: Trois-Rivi�res
(46.3500°N, 72.5500°W)
Time: 08:00:42
(UTC-05:00)
Language:

Cosmos 1975 - Orbit

View from above orbital plane
View from above orbital plane
View from above satellite
View from above satellite

Ground track
Ground track

The orbit data is extracted from the following two-line orbital elements,

1 19573U 88093A   17016.45624897  .00000846  00000-0  58965-4 0  9998
2 19573  82.5218 132.2691 0016000  95.3384 264.9669 15.04014869537001
Epoch (UTC): 16 January 2017 10:56:59
Eccentricity: 0.0016000
inclination: 82.5218°
perigee height: 543 km
apogee height: 565 km
right ascension of ascending node: 132.2691°
argument of perigee: 95.3384°
revolutions per day: 15.04014869
mean anomaly at epoch: 264.9669°
orbit number at epoch: 53700

The dashed part of the orbit path shows where the satellite is in the earth's shadow,  

DLR